Location: *
(1.3500°S, 147.5000°W)
Time: 04:32:59
(UTC+00:00)

Envisat - Pass Details

Date: 25 June 2021
Orbit: 764 x 766 km, 98.2° (Epoch: 03 August)

Event Time Altitude Azimuth Distance (km) Brightness Sun altitude
Rises 14:33:16 0° 19° (NNE) 3,213 6.9 -18.7°
Reaches altitude 10° 14:35:35 10° 22° (NNE) 2,290 6.1 -18.2°
Maximum altitude 14:40:34 60° 102° (ESE) 868 3.5 -17.1°
Drops below altitude 10° 14:45:33 10° 182° (S) 2,300 5.2 -15.9°
Sets 14:47:53 0° 185° (S) 3,228 6.0 -15.4°
